Weather in Bogushevichi

Belarus     53°42′43″N   28°49′24″E
temp.,
°C
wind,
m/s
gust,
m/s
humid.,
%
clouds,
%
prec.,
mm/h
press.,
hPa
HPBL,
m
20 september, mon
mon2000:00+6ne6996100 0.1 1010641
03:00+5nne61095100 0.1 1010603
06:00+4nne5996100 0.5 1010550
09:00+4n5996100 2.4 1010464
12:00+4n5996100 0.9 1011459
15:00+4nnw5996100 2.1 1011444
18:00+4nnw5996100 0.9 1011482
21:00+5nnw5996100 1.6 1012501
21 september, tue
tue2100:00+5nnw5996100 0.4 1012503
03:00+4nnw51096100 2.2 1012528
06:00+4nnw61096100 1.8 1012635
09:00+4nnw61095100 2.4 1014656
12:00+4nnw6997100 0.4 1014734
15:00+5nnw5997100 1.9 1015850
18:00+4nnw5997100 1.2 1016845
21:00+4nnw5997100 1.6 1017795
22 september, wed
wed2200:00+4nnw5897100 0.4 1017795
03:00+4nnw5897100 0.9 1016766
06:00+4nnw4897100 0.6 1016661
09:00+4nnw4897100 0.8 1016580
12:00+4nnw4897100 0.2 1016511
15:00+4nnw4797100 0.9 1017719
18:00+4nnw3797100 1.3 1017772
21:00+5n4794100 1.5 1017495
23 september, thu
thu2300:00+5nnw3797100 0.2 1016520
03:00+5nnw3598100 1.3 1015896
06:00+5nnw2597100 1.3 1015330
09:00+5n3595100 1.8 1015728
12:00+5nw1294100 0.1 1015338
15:00+6w2494100 0.3 1015275
18:00+6ssw1192100 0.1 101439
21:00+6s3696100 0.1 1014218
24 september, fri
fri2400:00+6s3797100 0.0 1012277
03:00+5s499594 0.0 1010338
06:00+5sse61295100 0.0 1007427
09:00+6sse81690100 0.0 1004592
12:00+7s81593100 2.8 1001809
15:00+9ssw6119128 4.9 1000810
18:00+10wsw6128379 0.3 1001859
21:00+9sw81585100 1.1 10011073